Time,TemperatureF,DewpointF,PressureIn,WindDirection,WindDirectionDegrees,WindSpeedMPH,WindSpeedGustMPH,Humidity,HourlyPrecipIn,Conditions,Clouds,dailyrainin,SoftwareType,DateUTC
2013-03-10 00:05:00,18.2,15.8,29.81,ENE,78,0.0,9.0,90,0.00,,,0.00,Wunderground v.1.15,2013-03-10 07:05:00,
2013-03-10 00:10:00,18.0,15.6,29.81,ENE,78,0.0,9.0,90,0.00,,,0.00,Wunderground v.1.15,2013-03-10 07:10:00,
2013-03-10 00:15:00,18.0,15.8,29.81,ENE,78,0.0,9.0,91,0.00,,,0.00,Wunderground v.1.15,2013-03-10 07:15:00,
2013-03-10 00:20:00,17.9,15.5,29.81,ENE,78,0.0,9.0,90,0.00,,,0.00,Wunderground v.1.15,2013-03-10 07:20:00,
2013-03-10 00:25:00,17.6,15.2,29.81,ENE,78,0.0,9.0,90,0.00,,,0.00,Wunderground v.1.15,2013-03-10 07:25:00,
2013-03-10 00:30:00,17.3,14.6,29.81,ENE,78,0.0,9.0,89,0.00,,,0.00,Wunderground v.1.15,2013-03-10 07:30:00,
2013-03-10 00:35:00,16.8,13.9,29.82,ENE,78,0.0,9.0,88,0.00,,,0.00,Wunderground v.1.15,2013-03-10 07:35:00,
2013-03-10 00:45:00,16.1,13.4,29.83,ENE,78,0.0,9.0,89,0.00,,,0.00,Wunderground v.1.15,2013-03-10 07:45:00,
2013-03-10 00:50:00,15.8,13.1,29.83,ENE,78,0.0,9.0,89,0.00,,,0.00,Wunderground v.1.15,2013-03-10 07:50:00,
2013-03-10 00:54:00,15.7,13.0,29.83,ENE,78,0.0,9.0,89,0.00,,,0.00,Wunderground v.1.15,2013-03-10 07:54:00,
2013-03-10 01:00:00,15.5,12.8,29.83,ENE,78,0.0,9.0,89,0.00,,,0.00,Wunderground v.1.15,2013-03-10 08:00:00,
2013-03-10 01:05:00,15.3,12.6,29.83,ENE,78,0.0,9.0,89,0.00,,,0.00,Wunderground v.1.15,2013-03-10 08:05:00,
2013-03-10 01:10:00,15.2,12.5,29.84,ENE,78,0.0,9.0,89,0.00,,,0.00,Wunderground v.1.15,2013-03-10 08:10:00,
2013-03-10 01:15:00,15.0,12.3,29.84,ENE,78,0.0,9.0,89,0.00,,,0.00,Wunderground v.1.15,2013-03-10 08:15:00,
2013-03-10 01:20:00,14.6,11.7,29.84,ENE,78,0.0,9.0,88,0.00,,,0.00,Wunderground v.1.15,2013-03-10 08:20:00,
2013-03-10 01:30:00,14.3,11.7,29.85,ENE,78,0.0,9.0,89,0.00,,,0.00,Wunderground v.1.15,2013-03-10 08:30:00,
2013-03-10 01:35:00,14.0,11.1,29.85,ENE,78,0.0,9.0,88,0.00,,,0.00,Wunderground v.1.15,2013-03-10 08:35:00,
2013-03-10 01:39:00,13.7,10.5,29.85,ENE,78,0.0,9.0,87,0.00,,,0.00,Wunderground v.1.15,2013-03-10 08:39:00,
2013-03-10 01:45:00,13.2,10.1,29.85,ENE,78,0.0,9.0,87,0.00,,,0.00,Wunderground v.1.15,2013-03-10 08:45:00,
2013-03-10 01:50:00,12.7,9.6,29.85,ENE,78,0.0,9.0,87,0.00,,,0.00,Wunderground v.1.15,2013-03-10 08:50:00,
2013-03-10 01:55:00,12.1,9.0,29.85,ENE,78,0.0,9.0,87,0.00,,,0.00,Wunderground v.1.15,2013-03-10 08:55:00,
2013-03-10 03:00:00,11.7,8.3,29.85,ENE,78,0.0,9.0,86,0.00,,,0.00,Wunderground v.1.15,2013-03-10 09:00:00,
2013-03-10 03:05:00,11.0,7.4,29.85,ENE,78,0.0,9.0,85,0.00,,,0.00,Wunderground v.1.15,2013-03-10 09:05:00,
2013-03-10 03:10:00,10.6,7.5,29.85,ENE,78,0.0,9.0,87,0.00,,,0.00,Wunderground v.1.15,2013-03-10 09:10:00,
2013-03-10 03:15:00,10.2,7.1,29.85,ENE,78,0.0,9.0,87,0.00,,,0.00,Wunderground v.1.15,2013-03-10 09:15:00,
2013-03-10 03:20:00,9.8,6.5,29.85,ENE,78,0.0,9.0,86,0.00,,,0.00,Wunderground v.1.15,2013-03-10 09:20:00,
2013-03-10 03:24:00,9.4,6.1,29.85,ENE,78,0.0,9.0,86,0.00,,,0.00,Wunderground v.1.15,2013-03-10 09:24:00,
2013-03-10 03:30:00,8.9,5.6,29.86,ENE,78,0.0,9.0,86,0.00,,,0.00,Wunderground v.1.15,2013-03-10 09:30:00,
2013-03-10 03:35:00,8.6,5.3,29.86,ENE,78,0.0,9.0,86,0.00,,,0.00,Wunderground v.1.15,2013-03-10 09:35:00,
2013-03-10 03:40:00,8.1,4.8,29.86,ENE,78,0.0,9.0,86,0.00,,,0.00,Wunderground v.1.15,2013-03-10 09:40:00,
2013-03-10 03:45:00,7.9,4.6,29.86,ENE,78,0.0,9.0,86,0.00,,,0.00,Wunderground v.1.15,2013-03-10 09:45:00,
2013-03-10 03:50:00,7.5,3.9,29.86,ENE,78,0.0,9.0,85,0.00,,,0.00,Wunderground v.1.15,2013-03-10 09:50:00,
2013-03-10 03:55:00,7.1,3.8,29.86,ENE,78,0.0,9.0,86,0.00,,,0.00,Wunderground v.1.15,2013-03-10 09:55:00,
2013-03-10 04:00:00,6.9,3.6,29.86,ENE,78,0.0,9.0,86,0.00,,,0.00,Wunderground v.1.15,2013-03-10 10:00:00,
2013-03-10 04:05:00,6.7,3.7,29.86,ENE,78,0.0,9.0,87,0.00,,,0.00,Wunderground v.1.15,2013-03-10 10:05:00,
2013-03-10 04:10:00,6.4,3.1,29.87,ENE,78,0.0,9.0,86,0.00,,,0.00,Wunderground v.1.15,2013-03-10 10:10:00,
2013-03-10 04:15:00,6.2,3.2,29.87,ENE,78,0.0,9.0,87,0.00,,,0.00,Wunderground v.1.15,2013-03-10 10:15:00,
2013-03-10 04:20:00,6.0,3.2,29.88,ENE,78,0.0,9.0,88,0.00,,,0.00,Wunderground v.1.15,2013-03-10 10:20:00,
2013-03-10 04:25:00,6.0,3.0,29.88,ENE,78,0.0,9.0,87,0.00,,,0.00,Wunderground v.1.15,2013-03-10 10:25:00,
2013-03-10 04:30:00,5.7,2.7,29.88,ENE,78,0.0,9.0,87,0.00,,,0.00,Wunderground v.1.15,2013-03-10 10:30:00,
2013-03-10 04:35:00,5.7,2.7,29.89,ENE,78,0.0,9.0,87,0.00,,,0.00,Wunderground v.1.15,2013-03-10 10:35:00,
2013-03-10 04:40:00,5.5,2.5,29.89,ENE,78,0.0,9.0,87,0.00,,,0.00,Wunderground v.1.15,2013-03-10 10:40:00,
2013-03-10 04:45:00,5.3,2.0,29.89,ENE,78,0.0,9.0,86,0.00,,,0.00,Wunderground v.1.15,2013-03-10 10:45:00,
2013-03-10 04:50:00,5.1,1.8,29.89,ENE,78,0.0,9.0,86,0.00,,,0.00,Wunderground v.1.15,2013-03-10 10:50:00,
2013-03-10 04:55:00,5.0,2.0,29.90,ENE,78,0.0,9.0,87,0.00,,,0.00,Wunderground v.1.15,2013-03-10 10:55:00,
2013-03-10 05:00:00,5.1,2.6,29.90,ENE,78,0.0,9.0,89,0.00,,,0.00,Wunderground v.1.15,2013-03-10 11:00:00,
2013-03-10 05:05:00,5.0,2.0,29.90,ENE,78,0.0,9.0,87,0.00,,,0.00,Wunderground v.1.15,2013-03-10 11:05:00,
2013-03-10 05:10:00,5.1,2.3,29.90,ENE,78,0.0,9.0,88,0.00,,,0.00,Wunderground v.1.15,2013-03-10 11:10:00,
2013-03-10 05:15:00,5.3,2.8,29.91,ENE,78,0.0,9.0,89,0.00,,,0.00,Wunderground v.1.15,2013-03-10 11:15:00,
2013-03-10 05:20:00,5.7,3.4,29.91,ENE,78,0.0,9.0,90,0.00,,,0.00,Wunderground v.1.15,2013-03-10 11:20:00,
2013-03-10 05:30:00,6.4,4.1,29.91,ENE,78,0.0,9.0,90,0.00,,,0.00,Wunderground v.1.15,2013-03-10 11:30:00,
2013-03-10 05:35:00,6.8,4.5,29.91,NNW,344,0.0,9.0,90,0.00,,,0.00,Wunderground v.1.15,2013-03-10 11:35:00,
2013-03-10 05:40:00,7.3,5.0,29.91,NNW,344,0.0,9.0,90,0.00,,,0.00,Wunderground v.1.15,2013-03-10 11:40:00,
2013-03-10 05:45:00,7.7,5.4,29.92,NNW,344,0.0,9.0,90,0.00,,,0.00,Wunderground v.1.15,2013-03-10 11:45:00,
2013-03-10 05:50:00,7.7,5.1,29.92,NNW,344,0.0,9.0,89,0.00,,,0.00,Wunderground v.1.15,2013-03-10 11:50:00,
2013-03-10 05:55:00,7.8,5.2,29.92,NNW,344,0.0,9.0,89,0.00,,,0.00,Wunderground v.1.15,2013-03-10 11:55:00,
2013-03-10 06:00:00,7.6,4.8,29.92,NNW,344,0.0,9.0,88,0.00,,,0.00,Wunderground v.1.15,2013-03-10 12:00:00,
2013-03-10 06:05:00,7.2,4.1,29.92,NNW,344,0.0,9.0,87,0.00,,,0.00,Wunderground v.1.15,2013-03-10 12:05:00,
2013-03-10 06:10:00,6.9,3.8,29.93,NNW,344,0.0,9.0,87,0.00,,,0.00,Wunderground v.1.15,2013-03-10 12:10:00,
2013-03-10 06:15:00,6.8,4.0,29.92,NNW,344,0.0,9.0,88,0.00,,,0.00,Wunderground v.1.15,2013-03-10 12:15:00,
2013-03-10 06:20:00,6.7,3.9,29.93,NNW,344,0.0,9.0,88,0.00,,,0.00,Wunderground v.1.15,2013-03-10 12:20:00,
2013-03-10 06:25:00,6.5,3.5,29.93,NNW,344,0.0,9.0,87,0.00,,,0.00,Wunderground v.1.15,2013-03-10 12:25:00,
2013-03-10 06:30:00,6.3,3.3,29.93,NNW,344,0.0,9.0,87,0.00,,,0.00,Wunderground v.1.15,2013-03-10 12:30:00,
2013-03-10 06:35:00,6.4,3.6,29.93,NNW,344,0.0,9.0,88,0.00,,,0.00,Wunderground v.1.15,2013-03-10 12:35:00,
2013-03-10 06:40:00,6.5,3.7,29.94,NNW,344,0.0,9.0,88,0.00,,,0.00,Wunderground v.1.15,2013-03-10 12:40:00,
2013-03-10 06:45:00,6.4,3.6,29.94,NNW,344,0.0,9.0,88,0.00,,,0.00,Wunderground v.1.15,2013-03-10 12:45:00,
2013-03-10 06:49:00,6.4,3.6,29.94,NNW,344,0.0,9.0,88,0.00,,,0.00,Wunderground v.1.15,2013-03-10 12:49:00,
2013-03-10 06:55:00,6.7,4.1,29.94,NNW,344,0.0,9.0,89,0.00,,,0.00,Wunderground v.1.15,2013-03-10 12:55:00,
2013-03-10 07:00:00,6.7,3.9,29.94,NNW,344,0.0,9.0,88,0.00,,,0.00,Wunderground v.1.15,2013-03-10 13:00:00,
2013-03-10 07:05:00,6.8,4.2,29.94,NNW,344,0.0,9.0,89,0.00,,,0.00,Wunderground v.1.15,2013-03-10 13:05:00,
2013-03-10 07:10:00,7.0,4.4,29.95,NNW,344,0.0,9.0,89,0.00,,,0.00,Wunderground v.1.15,2013-03-10 13:10:00,
2013-03-10 07:15:00,7.2,4.6,29.95,NNW,344,0.0,9.0,89,0.00,,,0.00,Wunderground v.1.15,2013-03-10 13:15:00,
2013-03-10 07:20:00,7.3,4.5,29.95,NNW,344,0.0,9.0,88,0.00,,,0.00,Wunderground v.1.15,2013-03-10 13:20:00,
2013-03-10 07:25:00,7.3,4.7,29.95,NNW,344,0.0,9.0,89,0.00,,,0.00,Wunderground v.1.15,2013-03-10 13:25:00,
2013-03-10 07:30:00,7.3,4.5,29.95,NNW,344,0.0,9.0,88,0.00,,,0.00,Wunderground v.1.15,2013-03-10 13:30:00,
2013-03-10 07:35:00,7.2,4.4,29.95,NNW,344,0.0,9.0,88,0.00,,,0.00,Wunderground v.1.15,2013-03-10 13:35:00,
2013-03-10 07:40:00,7.4,4.8,29.95,NNW,344,0.0,9.0,89,0.00,,,0.00,Wunderground v.1.15,2013-03-10 13:40:00,
2013-03-10 07:45:00,7.7,5.4,29.95,NNW,344,0.0,9.0,90,0.00,,,0.00,Wunderground v.1.15,2013-03-10 13:45:00,
2013-03-10 07:50:00,8.3,6.2,29.95,NNW,344,0.0,9.0,91,0.00,,,0.00,Wunderground v.1.15,2013-03-10 13:50:00,
2013-03-10 07:55:00,8.9,6.8,29.95,NNW,344,0.0,9.0,91,0.00,,,0.00,Wunderground v.1.15,2013-03-10 13:55:00,
2013-03-10 08:05:00,9.9,7.6,29.96,NNW,336,0.0,9.0,90,0.00,,,0.00,Wunderground v.1.15,2013-03-10 14:05:00,
2013-03-10 08:10:00,10.4,7.8,29.96,NW,317,0.0,9.0,89,0.00,,,0.00,Wunderground v.1.15,2013-03-10 14:10:00,
2013-03-10 08:15:00,11.0,8.4,29.96,NNW,338,0.0,9.0,89,0.00,,,0.00,Wunderground v.1.15,2013-03-10 14:15:00,
2013-03-10 08:20:00,11.7,8.8,29.96,NNW,346,0.0,9.0,88,0.00,,,0.00,Wunderground v.1.15,2013-03-10 14:20:00,
2013-03-10 08:25:00,12.4,9.0,29.96,SSW,198,0.0,9.0,86,0.00,,,0.00,Wunderground v.1.15,2013-03-10 14:25:00,
2013-03-10 08:35:00,13.3,9.6,29.97,WSW,257,0.0,9.0,85,0.00,,,0.00,Wunderground v.1.15,2013-03-10 14:35:00,
2013-03-10 08:40:00,13.7,9.8,29.97,WSW,257,0.0,9.0,84,0.00,,,0.00,Wunderground v.1.15,2013-03-10 14:40:00,
2013-03-10 08:45:00,14.3,10.4,29.97,West,271,0.0,9.0,84,0.00,,,0.00,Wunderground v.1.15,2013-03-10 14:45:00,
2013-03-10 08:50:00,15.1,11.1,29.96,West,271,0.0,9.0,84,0.00,,,0.00,Wunderground v.1.15,2013-03-10 14:50:00,
2013-03-10 08:55:00,15.6,11.1,29.96,WSW,257,0.0,9.0,82,0.00,,,0.00,Wunderground v.1.15,2013-03-10 14:55:00,
2013-03-10 09:00:00,15.9,11.1,29.96,West,265,0.0,9.0,81,0.00,,,0.00,Wunderground v.1.15,2013-03-10 15:00:00,
2013-03-10 09:10:00,16.7,11.3,29.96,NNE,14,0.0,9.0,79,0.00,,,0.00,Wunderground v.1.15,2013-03-10 15:10:00,
2013-03-10 09:20:00,18.0,11.4,29.96,NW,320,0.0,9.0,75,0.00,,,0.00,Wunderground v.1.15,2013-03-10 15:20:00,
2013-03-10 09:25:00,18.5,11.9,29.96,WNW,283,0.0,9.0,75,0.00,,,0.00,Wunderground v.1.15,2013-03-10 15:25:00,
2013-03-10 09:30:00,19.1,11.9,29.96,West,266,0.0,9.0,73,0.00,,,0.00,Wunderground v.1.15,2013-03-10 15:30:00,
2013-03-10 09:40:00,20.2,12.3,29.97,NNE,13,1.0,1.0,71,0.00,,,0.00,Wunderground v.1.15,2013-03-10 15:40:00,
2013-03-10 09:45:00,20.6,12.0,29.98,West,272,1.0,9.0,69,0.00,,,0.01,Wunderground v.1.15,2013-03-10 15:45:00,
2013-03-10 09:50:00,20.8,12.2,29.98,WNW,288,1.0,1.0,69,0.00,,,0.01,Wunderground v.1.15,2013-03-10 15:50:00,
2013-03-10 09:55:00,21.1,12.5,29.98,NNW,344,1.0,4.0,69,0.00,,,0.01,Wunderground v.1.15,2013-03-10 15:55:00,
2013-03-10 10:00:00,21.3,13.0,29.98,North,360,1.0,9.0,70,0.00,,,0.01,Wunderground v.1.15,2013-03-10 16:00:00,
2013-03-10 10:05:00,21.7,13.1,29.98,North,350,1.0,9.0,69,0.00,,,0.01,Wunderground v.1.15,2013-03-10 16:05:00,
2013-03-10 10:10:00,22.0,12.7,29.98,WNW,301,1.0,1.0,67,0.00,,,0.01,Wunderground v.1.15,2013-03-10 16:10:00,
2013-03-10 10:15:00,22.4,13.1,29.98,WSW,257,1.0,9.0,67,0.00,,,0.01,Wunderground v.1.15,2013-03-10 16:15:00,
2013-03-10 10:20:00,23.0,12.6,29.99,WNW,298,0.0,9.0,64,0.00,,,0.01,Wunderground v.1.15,2013-03-10 16:20:00,
2013-03-10 10:25:00,23.5,13.5,29.99,West,275,0.0,9.0,65,0.00,,,0.02,Wunderground v.1.15,2013-03-10 16:25:00,
2013-03-10 10:30:00,24.0,13.2,29.99,WSW,237,0.0,9.0,63,0.17,,,0.03,Wunderground v.1.15,2013-03-10 16:30:00,
2013-03-10 10:35:00,24.8,14.3,29.99,WNW,297,0.0,9.0,64,0.12,,,0.04,Wunderground v.1.15,2013-03-10 16:35:00,
2013-03-10 10:40:00,25.0,13.4,29.99,NE,37,0.0,9.0,61,0.14,,,0.05,Wunderground v.1.15,2013-03-10 16:40:00,
2013-03-10 10:50:00,25.2,13.2,29.99,NW,305,0.0,9.0,60,0.09,,,0.07,Wunderground v.1.15,2013-03-10 16:50:00,
2013-03-10 10:55:00,25.5,13.5,29.99,NNE,19,0.0,9.0,60,0.09,,,0.07,Wunderground v.1.15,2013-03-10 16:55:00,
2013-03-10 11:00:00,25.5,13.1,29.99,West,275,1.0,9.0,59,0.08,,,0.08,Wunderground v.1.15,2013-03-10 17:00:00,
2013-03-10 11:05:00,25.4,13.4,30.00,NNW,332,1.0,9.0,60,0.08,,,0.09,Wunderground v.1.15,2013-03-10 17:05:00,
2013-03-10 11:10:00,25.9,12.7,30.00,NNW,331,1.0,1.0,57,0.08,,,0.09,Wunderground v.1.15,2013-03-10 17:10:00,
2013-03-10 11:20:00,27.1,14.3,29.99,NNW,347,1.0,9.0,58,0.06,,,0.10,Wunderground v.1.15,2013-03-10 17:20:00,
2013-03-10 11:25:00,27.6,15.5,30.00,WNW,292,1.0,9.0,60,0.07,,,0.11,Wunderground v.1.15,2013-03-10 17:25:00,
2013-03-10 11:30:00,28.2,14.1,30.00,SSW,195,1.0,1.0,55,0.07,,,0.11,Wunderground v.1.15,2013-03-10 17:30:00,
2013-03-10 11:40:00,28.4,14.3,30.00,WNW,298,1.0,9.0,55,0.05,,,0.12,Wunderground v.1.15,2013-03-10 17:40:00,
2013-03-10 11:45:00,28.8,14.6,30.00,South,189,1.0,9.0,55,0.07,,,0.13,Wunderground v.1.15,2013-03-10 17:45:00,
2013-03-10 11:50:00,29.2,12.4,30.00,NNW,342,1.0,1.0,49,0.07,,,0.13,Wunderground v.1.15,2013-03-10 17:50:00,
2013-03-10 11:55:00,29.3,15.1,30.00,NNW,337,1.0,9.0,55,0.06,,,0.14,Wunderground v.1.15,2013-03-10 17:55:00,
2013-03-10 12:00:00,29.8,14.3,30.00,WNW,302,0.0,9.0,52,0.06,,,0.14,Wunderground v.1.15,2013-03-10 18:00:00,
2013-03-10 12:05:00,30.1,16.7,30.00,WSW,246,0.0,9.0,57,0.07,,,0.15,Wunderground v.1.15,2013-03-10 18:05:00,
2013-03-10 12:10:00,30.6,15.0,30.00,West,267,0.0,9.0,52,0.07,,,0.15,Wunderground v.1.15,2013-03-10 18:10:00,
2013-03-10 12:15:00,30.7,14.7,30.00,West,278,0.0,9.0,51,0.05,,,0.15,Wunderground v.1.15,2013-03-10 18:15:00,
2013-03-10 12:20:00,31.0,16.7,30.00,NNW,331,0.0,9.0,55,0.04,,,0.16,Wunderground v.1.15,2013-03-10 18:20:00,
2013-03-10 12:25:00,31.3,15.7,30.00,North,355,0.0,9.0,52,0.04,,,0.16,Wunderground v.1.15,2013-03-10 18:25:00,
2013-03-10 12:30:00,31.4,16.2,29.99,NW,324,1.0,1.0,53,0.06,,,0.17,Wunderground v.1.15,2013-03-10 18:30:00,
2013-03-10 12:35:00,31.5,15.9,29.99,NW,315,1.0,9.0,52,0.06,,,0.17,Wunderground v.1.15,2013-03-10 18:35:00,
2013-03-10 12:40:00,31.6,15.5,29.99,NW,323,1.0,1.0,51,0.05,,,0.17,Wunderground v.1.15,2013-03-10 18:40:00,
2013-03-10 12:49:00,31.7,16.1,29.99,WNW,292,0.0,9.0,52,0.00,,,0.18,Wunderground v.1.15,2013-03-10 18:49:00,
2013-03-10 12:55:00,32.1,15.5,29.99,WSW,242,1.0,9.0,50,0.09,,,0.19,Wunderground v.1.15,2013-03-10 18:55:00,
2013-03-10 13:00:00,32.3,14.8,29.99,NW,321,1.0,1.0,48,0.08,,,0.19,Wunderground v.1.15,2013-03-10 19:00:00,
2013-03-10 13:05:00,32.5,15.9,29.99,West,281,0.0,9.0,50,0.08,,,0.20,Wunderground v.1.15,2013-03-10 19:05:00,
2013-03-10 13:10:00,32.8,15.7,29.99,WSW,252,0.0,9.0,49,0.07,,,0.21,Wunderground v.1.15,2013-03-10 19:10:00,
2013-03-10 13:20:00,33.3,17.1,29.98,West,271,0.0,9.0,51,0.06,,,0.22,Wunderground v.1.15,2013-03-10 19:20:00,
2013-03-10 13:25:00,33.8,16.6,29.98,WSW,254,0.0,9.0,49,0.06,,,0.22,Wunderground v.1.15,2013-03-10 19:25:00,
2013-03-10 13:30:00,34.3,16.6,29.98,WSW,242,0.0,9.0,48,0.05,,,0.22,Wunderground v.1.15,2013-03-10 19:30:00,
2013-03-10 13:35:00,34.9,16.2,29.98,SW,226,0.0,9.0,46,0.05,,,0.23,Wunderground v.1.15,2013-03-10 19:35:00,
2013-03-10 13:40:00,35.0,16.3,29.98,WSW,240,0.0,9.0,46,0.05,,,0.23,Wunderground v.1.15,2013-03-10 19:40:00,
2013-03-10 13:45:00,34.9,17.7,29.98,West,279,1.0,9.0,49,0.05,,,0.24,Wunderground v.1.15,2013-03-10 19:45:00,
2013-03-10 13:50:00,35.0,17.7,29.98,NNE,18,1.0,9.0,49,0.05,,,0.24,Wunderground v.1.15,2013-03-10 19:50:00,
2013-03-10 14:00:00,35.2,17.9,29.98,SSE,164,0.0,9.0,49,0.04,,,0.25,Wunderground v.1.15,2013-03-10 20:00:00,
2013-03-10 14:05:00,35.4,14.6,29.98,ENE,67,0.0,9.0,42,0.04,,,0.25,Wunderground v.1.15,2013-03-10 20:05:00,
2013-03-10 14:15:00,35.4,13.4,29.98,North,360,1.0,2.0,40,0.00,,,0.25,Wunderground v.1.15,2013-03-10 20:15:00,
2013-03-10 14:20:00,34.8,12.9,29.98,NNE,28,2.0,2.0,40,0.00,,,0.25,Wunderground v.1.15,2013-03-10 20:20:00,
2013-03-10 14:25:00,34.6,12.1,29.97,NE,46,2.0,9.0,39,0.00,,,0.25,Wunderground v.1.15,2013-03-10 20:25:00,
2013-03-10 14:30:00,35.1,12.0,29.97,ESE,105,1.0,1.0,38,0.00,,,0.25,Wunderground v.1.15,2013-03-10 20:30:00,
2013-03-10 14:35:00,35.9,13.3,29.97,North,355,1.0,9.0,39,0.00,,,0.26,Wunderground v.1.15,2013-03-10 20:35:00,
2013-03-10 14:40:00,36.0,14.5,29.97,WSW,250,1.0,9.0,41,0.00,,,0.26,Wunderground v.1.15,2013-03-10 20:40:00,
2013-03-10 14:50:00,36.4,13.8,29.97,North,349,1.0,9.0,39,0.00,,,0.26,Wunderground v.1.15,2013-03-10 20:50:00,
2013-03-10 14:55:00,36.5,15.0,29.97,North,360,1.0,9.0,41,0.00,,,0.26,Wunderground v.1.15,2013-03-10 20:55:00,
2013-03-10 15:00:00,36.9,13.6,29.96,ENE,58,0.0,9.0,38,0.00,,,0.26,Wunderground v.1.15,2013-03-10 21:00:00,
2013-03-10 15:05:00,36.9,13.0,29.96,SW,223,0.0,9.0,37,0.00,,,0.26,Wunderground v.1.15,2013-03-10 21:05:00,
2013-03-10 15:10:00,37.0,11.8,29.96,NNW,341,1.0,9.0,35,0.00,,,0.26,Wunderground v.1.15,2013-03-10 21:10:00,
2013-03-10 15:15:00,36.9,11.8,29.96,North,5,1.0,9.0,35,0.00,,,0.27,Wunderground v.1.15,2013-03-10 21:15:00,
2013-03-10 15:20:00,36.8,12.9,29.97,SW,227,2.0,9.0,37,0.00,,,0.27,Wunderground v.1.15,2013-03-10 21:20:00,
2013-03-10 15:30:00,37.0,12.5,29.96,NE,34,1.0,1.0,36,0.00,,,0.27,Wunderground v.1.15,2013-03-10 21:30:00,
2013-03-10 15:35:00,37.4,12.2,29.97,North,5,1.0,9.0,35,0.00,,,0.27,Wunderground v.1.15,2013-03-10 21:35:00,
2013-03-10 15:40:00,37.7,12.5,29.97,North,355,0.0,9.0,35,0.00,,,0.27,Wunderground v.1.15,2013-03-10 21:40:00,
2013-03-10 15:45:00,38.0,13.4,29.97,NE,49,0.0,9.0,36,0.00,,,0.27,Wunderground v.1.15,2013-03-10 21:45:00,
2013-03-10 15:50:00,38.1,12.2,29.97,North,360,1.0,1.0,34,0.00,,,0.27,Wunderground v.1.15,2013-03-10 21:50:00,
2013-03-10 15:55:00,37.8,11.9,29.97,North,360,1.0,3.0,34,0.00,,,0.27,Wunderground v.1.15,2013-03-10 21:55:00,
2013-03-10 16:00:00,37.2,10.0,29.97,North,355,1.0,9.0,32,0.00,,,0.27,Wunderground v.1.15,2013-03-10 22:00:00,
2013-03-10 16:05:00,37.3,12.1,29.97,North,360,1.0,9.0,35,0.00,,,0.27,Wunderground v.1.15,2013-03-10 22:05:00,
2013-03-10 16:15:00,37.7,11.1,29.97,NNW,341,0.0,9.0,33,0.00,,,0.28,Wunderground v.1.15,2013-03-10 22:15:00,
2013-03-10 16:20:00,37.7,10.4,29.96,NNW,339,0.0,9.0,32,0.00,,,0.28,Wunderground v.1.15,2013-03-10 22:20:00,
2013-03-10 16:25:00,37.5,12.3,29.97,NNW,343,1.0,9.0,35,0.00,,,0.28,Wunderground v.1.15,2013-03-10 22:25:00,
2013-03-10 16:30:00,37.6,12.4,29.97,NNW,337,1.0,1.0,35,0.00,,,0.28,Wunderground v.1.15,2013-03-10 22:30:00,
2013-03-10 16:35:00,37.8,10.5,29.97,North,355,1.0,4.0,32,0.00,,,0.28,Wunderground v.1.15,2013-03-10 22:35:00,
2013-03-10 16:40:00,37.8,10.5,29.97,WNW,287,1.0,9.0,32,0.00,,,0.28,Wunderground v.1.15,2013-03-10 22:40:00,
2013-03-10 16:45:00,37.6,11.0,29.97,NW,325,1.0,9.0,33,0.00,,,0.28,Wunderground v.1.15,2013-03-10 22:45:00,
2013-03-10 16:50:00,37.6,11.0,29.97,North,349,1.0,9.0,33,0.00,,,0.28,Wunderground v.1.15,2013-03-10 22:50:00,
2013-03-10 16:55:00,37.2,10.0,29.97,WNW,302,1.0,9.0,32,0.00,,,0.28,Wunderground v.1.15,2013-03-10 22:55:00,
2013-03-10 17:00:00,36.7,11.6,29.97,North,355,2.0,9.0,35,0.00,,,0.28,Wunderground v.1.15,2013-03-10 23:00:00,
2013-03-10 17:05:00,36.2,10.5,29.96,West,279,2.0,9.0,34,0.00,,,0.28,Wunderground v.1.15,2013-03-10 23:05:00,
2013-03-10 17:10:00,35.7,11.3,29.96,NE,55,2.0,2.0,36,0.00,,,0.28,Wunderground v.1.15,2013-03-10 23:10:00,
2013-03-10 17:15:00,35.5,11.1,29.96,NE,54,1.0,9.0,36,0.00,,,0.28,Wunderground v.1.15,2013-03-10 23:15:00,
2013-03-10 17:20:00,35.4,11.1,29.97,WSW,257,2.0,2.0,36,0.00,,,0.28,Wunderground v.1.15,2013-03-10 23:20:00,
2013-03-10 17:25:00,35.2,12.1,29.96,NNW,348,2.0,9.0,38,0.00,,,0.28,Wunderground v.1.15,2013-03-10 23:25:00,
2013-03-10 17:30:00,35.0,11.9,29.97,NNW,334,2.0,2.0,38,0.00,,,0.28,Wunderground v.1.15,2013-03-10 23:30:00,
2013-03-10 17:35:00,34.8,11.7,29.97,West,279,1.0,9.0,38,0.00,,,0.28,Wunderground v.1.15,2013-03-10 23:35:00,
2013-03-10 17:40:00,34.7,11.6,29.96,NW,324,1.0,1.0,38,0.00,,,0.28,Wunderground v.1.15,2013-03-10 23:40:00,
2013-03-10 17:45:00,34.6,12.1,29.97,North,11,2.0,2.0,39,0.00,,,0.28,Wunderground v.1.15,2013-03-10 23:45:00,
2013-03-10 17:55:00,34.2,11.8,29.96,WSW,242,1.0,9.0,39,0.00,,,0.28,Wunderground v.1.15,2013-03-10 23:55:00,
2013-03-10 18:00:00,34.0,11.6,29.97,North,355,1.0,1.0,39,0.00,,,0.28,Wunderground v.1.15,2013-03-11 00:00:00,
2013-03-10 18:05:00,33.7,11.3,29.97,SW,233,0.0,9.0,39,0.00,,,0.28,Wunderground v.1.15,2013-03-11 00:05:00,
2013-03-10 18:10:00,33.5,11.7,29.97,North,11,0.0,9.0,40,0.00,,,0.28,Wunderground v.1.15,2013-03-11 00:10:00,
2013-03-10 18:15:00,33.3,12.1,29.97,NNW,340,0.0,9.0,41,0.00,,,0.28,Wunderground v.1.15,2013-03-11 00:15:00,
2013-03-10 18:20:00,33.1,11.4,29.98,North,360,0.0,9.0,40,0.00,,,0.28,Wunderground v.1.15,2013-03-11 00:20:00,
2013-03-10 18:25:00,33.0,11.8,29.98,North,355,0.0,9.0,41,0.00,,,0.28,Wunderground v.1.15,2013-03-11 00:25:00,
2013-03-10 18:30:00,32.8,11.6,29.98,NW,326,0.0,9.0,41,0.00,,,0.28,Wunderground v.1.15,2013-03-11 00:30:00,
2013-03-10 18:35:00,32.6,12.0,29.98,NNW,344,0.0,9.0,42,0.00,,,0.28,Wunderground v.1.15,2013-03-11 00:35:00,
2013-03-10 18:40:00,32.4,12.4,29.98,NNW,345,0.0,9.0,43,0.00,,,0.28,Wunderground v.1.15,2013-03-11 00:40:00,
2013-03-10 18:45:00,32.0,12.5,29.98,WNW,285,0.0,9.0,44,0.00,,,0.28,Wunderground v.1.15,2013-03-11 00:45:00,
2013-03-10 18:50:00,31.7,12.8,29.98,North,355,0.0,9.0,45,0.00,,,0.28,Wunderground v.1.15,2013-03-11 00:50:00,
2013-03-10 18:55:00,31.5,13.1,29.98,North,351,0.0,9.0,46,0.00,,,0.28,Wunderground v.1.15,2013-03-11 00:55:00,
2013-03-10 19:00:00,31.3,12.4,29.98,North,351,0.0,9.0,45,0.00,,,0.28,Wunderground v.1.15,2013-03-11 01:00:00,
2013-03-10 19:05:00,31.1,12.7,29.98,North,350,0.0,9.0,46,0.00,,,0.28,Wunderground v.1.15,2013-03-11 01:05:00,
2013-03-10 19:10:00,30.8,13.4,29.98,North,5,0.0,9.0,48,0.00,,,0.28,Wunderground v.1.15,2013-03-11 01:10:00,
2013-03-10 19:15:00,30.6,13.2,29.99,NNW,340,0.0,9.0,48,0.00,,,0.28,Wunderground v.1.15,2013-03-11 01:15:00,
2013-03-10 19:20:00,30.6,13.2,30.00,NNW,342,0.0,9.0,48,0.00,,,0.28,Wunderground v.1.15,2013-03-11 01:20:00,
2013-03-10 19:25:00,30.6,12.7,30.00,NNW,344,1.0,9.0,47,0.00,,,0.28,Wunderground v.1.15,2013-03-11 01:25:00,
2013-03-10 19:30:00,30.9,13.0,30.00,NNW,342,1.0,1.0,47,0.00,,,0.28,Wunderground v.1.15,2013-03-11 01:30:00,
2013-03-10 19:35:00,31.0,12.6,30.00,NW,317,1.0,9.0,46,0.00,,,0.28,Wunderground v.1.15,2013-03-11 01:35:00,
2013-03-10 19:45:00,31.0,11.6,30.00,NNW,346,1.0,9.0,44,0.00,,,0.28,Wunderground v.1.15,2013-03-11 01:45:00,
2013-03-10 19:50:00,31.1,11.2,30.00,NNW,331,1.0,9.0,43,0.00,,,0.28,Wunderground v.1.15,2013-03-11 01:50:00,
2013-03-10 19:55:00,31.1,11.2,30.00,WNW,301,1.0,9.0,43,0.00,,,0.28,Wunderground v.1.15,2013-03-11 01:55:00,
2013-03-10 20:00:00,31.0,11.6,30.00,North,355,1.0,1.0,44,0.00,,,0.28,Wunderground v.1.15,2013-03-11 02:00:00,
2013-03-10 20:05:00,30.7,11.3,30.00,West,277,1.0,9.0,44,0.00,,,0.28,Wunderground v.1.15,2013-03-11 02:05:00,
2013-03-10 20:10:00,30.4,13.0,30.00,NW,324,1.0,1.0,48,0.00,,,0.28,Wunderground v.1.15,2013-03-11 02:10:00,
2013-03-10 20:15:00,30.0,13.1,30.00,NW,323,1.0,2.0,49,0.00,,,0.28,Wunderground v.1.15,2013-03-11 02:15:00,
2013-03-10 20:20:00,29.7,13.3,30.00,WNW,292,1.0,1.0,50,0.00,,,0.28,Wunderground v.1.15,2013-03-11 02:20:00,
2013-03-10 20:25:00,29.4,13.0,30.00,NNW,336,1.0,9.0,50,0.00,,,0.28,Wunderground v.1.15,2013-03-11 02:25:00,
2013-03-10 20:30:00,29.2,12.4,30.01,WNW,299,1.0,1.0,49,0.00,,,0.28,Wunderground v.1.15,2013-03-11 02:30:00,
2013-03-10 20:35:00,29.1,11.8,30.01,SSW,192,1.0,9.0,48,0.00,,,0.28,Wunderground v.1.15,2013-03-11 02:35:00,
2013-03-10 20:45:00,29.3,11.1,30.01,NW,323,1.0,9.0,46,0.00,,,0.28,Wunderground v.1.15,2013-03-11 02:45:00,
2013-03-10 20:50:00,29.3,11.5,30.01,North,360,1.0,1.0,47,0.00,,,0.28,Wunderground v.1.15,2013-03-11 02:50:00,
2013-03-10 21:00:00,29.1,10.9,30.01,NW,311,1.0,9.0,46,0.00,,,0.28,Wunderground v.1.15,2013-03-11 03:00:00,
2013-03-10 21:05:00,29.1,11.8,30.01,WNW,301,1.0,9.0,48,0.00,,,0.28,Wunderground v.1.15,2013-03-11 03:05:00,
2013-03-10 21:10:00,29.0,11.3,30.01,NNW,338,1.0,1.0,47,0.00,,,0.28,Wunderground v.1.15,2013-03-11 03:10:00,
2013-03-10 21:15:00,28.9,11.6,30.01,WNW,285,1.0,9.0,48,0.00,,,0.28,Wunderground v.1.15,2013-03-11 03:15:00,
2013-03-10 21:20:00,28.9,11.2,30.01,NNW,348,1.0,1.0,47,0.00,,,0.28,Wunderground v.1.15,2013-03-11 03:20:00,
2013-03-10 21:25:00,28.7,12.4,30.01,WNW,284,1.0,9.0,50,0.00,,,0.28,Wunderground v.1.15,2013-03-11 03:25:00,
2013-03-10 21:30:00,28.3,12.0,30.01,WNW,282,0.0,9.0,50,0.00,,,0.28,Wunderground v.1.15,2013-03-11 03:30:00,
2013-03-10 21:35:00,27.9,13.4,30.01,WNW,282,0.0,9.0,54,0.00,,,0.28,Wunderground v.1.15,2013-03-11 03:35:00,
2013-03-10 21:45:00,27.0,13.8,30.01,North,9,0.0,9.0,57,0.00,,,0.28,Wunderground v.1.15,2013-03-11 03:45:00,
2013-03-10 21:55:00,26.2,13.4,30.01,SW,234,0.0,9.0,58,0.00,,,0.28,Wunderground v.1.15,2013-03-11 03:55:00,
2013-03-10 22:00:00,26.0,13.2,30.02,NNW,336,0.0,9.0,58,0.00,,,0.28,Wunderground v.1.15,2013-03-11 04:00:00,
2013-03-10 22:05:00,25.9,13.5,30.02,West,263,0.0,9.0,59,0.00,,,0.28,Wunderground v.1.15,2013-03-11 04:05:00,
2013-03-10 22:10:00,25.7,13.3,30.02,West,263,0.0,9.0,59,0.00,,,0.28,Wunderground v.1.15,2013-03-11 04:10:00,
2013-03-10 22:15:00,25.5,13.5,30.02,SSE,167,0.0,9.0,60,0.00,,,0.28,Wunderground v.1.15,2013-03-11 04:15:00,
2013-03-10 22:20:00,25.3,13.3,30.02,SSE,167,0.0,9.0,60,0.00,,,0.28,Wunderground v.1.15,2013-03-11 04:20:00,
2013-03-10 22:25:00,25.1,13.5,30.02,SSE,167,0.0,9.0,61,0.00,,,0.28,Wunderground v.1.15,2013-03-11 04:25:00,
2013-03-10 22:30:00,24.9,13.3,30.01,SSE,167,0.0,9.0,61,0.00,,,0.28,Wunderground v.1.15,2013-03-11 04:30:00,
2013-03-10 22:35:00,24.7,13.1,30.02,SSE,167,0.0,9.0,61,0.00,,,0.28,Wunderground v.1.15,2013-03-11 04:35:00,
2013-03-10 22:40:00,24.5,13.3,30.01,WSW,244,0.0,9.0,62,0.00,,,0.28,Wunderground v.1.15,2013-03-11 04:40:00,
2013-03-10 22:50:00,24.2,12.7,30.01,NW,321,0.0,9.0,61,0.00,,,0.28,Wunderground v.1.15,2013-03-11 04:50:00,
2013-03-10 22:55:00,24.2,12.7,30.01,NW,313,0.0,9.0,61,0.00,,,0.28,Wunderground v.1.15,2013-03-11 04:55:00,
2013-03-10 23:00:00,24.2,12.7,30.02,NW,313,0.0,9.0,61,0.00,,,0.28,Wunderground v.1.15,2013-03-11 05:00:00,
2013-03-10 23:05:00,24.1,12.9,30.01,WNW,284,0.0,9.0,62,0.00,,,0.28,Wunderground v.1.15,2013-03-11 05:05:00,
2013-03-10 23:10:00,24.1,12.6,30.01,NW,322,0.0,9.0,61,0.00,,,0.28,Wunderground v.1.15,2013-03-11 05:10:00,
2013-03-10 23:15:00,24.1,12.9,30.01,North,355,0.0,9.0,62,0.00,,,0.28,Wunderground v.1.15,2013-03-11 05:15:00,
2013-03-10 23:20:00,24.0,13.2,30.01,North,355,0.0,9.0,63,0.00,,,0.28,Wunderground v.1.15,2013-03-11 05:20:00,
2013-03-10 23:25:00,23.8,13.0,30.01,NE,36,0.0,9.0,63,0.00,,,0.28,Wunderground v.1.15,2013-03-11 05:25:00,
2013-03-10 23:30:00,23.6,13.2,30.01,NNE,29,0.0,9.0,64,0.00,,,0.28,Wunderground v.1.15,2013-03-11 05:30:00,
2013-03-10 23:35:00,23.4,13.0,30.01,West,281,0.0,9.0,64,0.00,,,0.28,Wunderground v.1.15,2013-03-11 05:35:00,
2013-03-10 23:40:00,23.3,12.6,30.01,West,273,0.0,9.0,63,0.00,,,0.28,Wunderground v.1.15,2013-03-11 05:40:00,
2013-03-10 23:45:00,23.4,12.6,30.00,WNW,290,0.0,9.0,63,0.00,,,0.28,Wunderground v.1.15,2013-03-11 05:45:00,
2013-03-10 23:55:00,24.0,12.1,30.00,NW,321,0.0,9.0,60,0.00,,,0.28,Wunderground v.1.15,2013-03-11 05:55:00,